Regional Weather Roundup
Issued by NWS

Home | Current Version | Previous Version | Graphics & Text | Print | Product List | Glossary Off
Versions: 1 2 3 4 5 6 7 8 9 10 11 12 13 14 15 16 17 18 19 20 21 22 23 24 25 26 27 28 29 30 31 32 33 34 35 36 37 38 39 40 41 42 43 44 45 46 47 48 49 50

000
ASUS45 KPSR 070710
RWRAZ

ARIZONA HOURLY REGIONAL WEATHER ROUNDUP
NATIONAL WEATHER SERVICE PHOENIX AZ
1200 AM MST TUE JUL 07 2015

NOTE: FAIR INDICATES FEW OR NO CLOUDS BELOW 12,000 FEET WITH NO
SIGNIFICANT WEATHER AND/OR OBSTRUCTIONS TO VISIBILITY.

AZZ001>003-036-070800-
NORTHWEST ARIZONA

CITY           SKY/WX    TMP DP  RH WIND       PRES   REMARKS
BULLHEAD CITY  PTCLDY    91  54  27 N13       29.84S
KINGMAN        MOCLDY    74  54  49 SE10      30.08S
$$

AZZ004>008-015-016-018-070800-
NORTH CENTRAL ARIZONA

CITY           SKY/WX    TMP DP  RH WIND       PRES   REMARKS
GRAND CANYON   CLEAR     50  46  86 CALM      30.27F
WILLIAMS       CLEAR     54  50  87 S7        30.35S
PRESCOTT       CLEAR     66  55  67 SW5       30.17S
FLAGSTAFF      CLEAR     53  50  89 CALM      30.30S
PAYSON         PTCLDY    72  52  49 NW5       30.18R
PAGE           CLEAR     70  57  63 CALM      30.11R
$$

AZZ009>014-017-070800-
NORTHEAST ARIZONA

CITY           SKY/WX    TMP DP  RH WIND       PRES   REMARKS
WINSLOW        PTCLDY    67  56  67 W7        30.16R
SAINT JOHNS    MOCLDY    70  52  52 CALM      30.19S
WINDOW ROCK    PTCLDY    60  51  72 NE3       30.27R
SHOW LOW       MOCLDY    64  50  59 W5        30.27R
$$

AZZ023-070800-
GREATER PHOENIX AREA

CITY           SKY/WX    TMP DP  RH WIND       PRES   REMARKS
PHOENIX        PTCLDY    95  55  26 NW7       29.84S
BUCKEYE        PTCLDY    84  64  51 CALM      29.86S
LUKE AFB       PTCLDY    90  61  37 SW5       29.85R
DEER VALLEY    PTCLDY    89  56  32 CALM      29.87S
SCOTTSDALE     PTCLDY    91  55  29 CALM      29.89S
MESA-GATEWAY   PTCLDY    86  64  48 SE6       29.90
$$

AZZ027-028-070800-
SOUTHWEST MARICOPA COUNTY AND PINAL COUNTY

CITY           SKY/WX    TMP DP  RH WIND       PRES   REMARKS
CASA GRANDE    CLEAR     84  63  48 CALM      29.88S
GILA BEND      FAIR      86  65  49 S7        29.84F
$$

AZZ503-504-507>509-070800-
SOUTHEAST ARIZONA

CITY           SKY/WX    TMP DP  RH WIND       PRES   REMARKS
TUCSON         CLEAR     80  62  54 SE7       30.01S
DAVIS-MONTHAN  CLEAR     78  63  60 S8        30.00S
NOGALES        CLEAR     71  64  78 E6        30.10S
SIERRA VISTA   CLEAR     71  62  72 W10       30.15F
DOUGLAS        CLEAR     68  64  87 CALM      30.10S
SAFFORD        CLEAR     82  59  45 NW14      29.97S
$$

AZZ020-021-025-026-031-070800-
SOUTHWEST ARIZONA

CITY           SKY/WX    TMP DP  RH WIND       PRES   REMARKS
YUMA           CLEAR     88  48  25 S3        29.80S
$$

CAZ031-033-041-043-047-048-061-070800-
SOUTHERN CALIFORNIA

CITY           SKY/WX    TMP DP  RH WIND       PRES   REMARKS
DOWNTOWN L.A.  CLOUDY    65  59  81 CALM      30.01S
L.A. AIRPORT   CLOUDY    64  60  87 S5        30.01F
SAN DIEGO      CLOUDY    67  59  75 NW6       30.02F
BURBANK        CLOUDY    64  58  80 SE8       30.01R
ONTARIO        PTCLDY    64  58  80 W6        30.01F
RIVERSIDE        N/A    N/A N/A N/A MISG      30.01F
PALM SPRINGS   CLEAR     87  58  37 NW10      29.84S
EL CENTRO NAS  CLEAR     84  54  35 S6        29.80R
IMPERIAL       CLEAR     89  48  24 CALM      29.77S
BLYTHE         CLEAR     95  46  18 SW7       29.80S
NEEDLES        CLEAR     91  54  28 N10       29.85F
$$

NVZ020-UTZ003-070800-
SOUTHERN NEVADA-UTAH

CITY           SKY/WX    TMP DP  RH WIND       PRES   REMARKS
LAS VEGAS      CLOUDY    83  56  39 SW13      29.93S THUNDER
SALT LAKE CITY MOCLDY    74  55  51 S10       30.06R
$$

NMZ009-TXZ055-070800-
NEW MEXICO-WEST TEXAS

CITY           SKY/WX    TMP DP  RH WIND       PRES   REMARKS
ALBUQUERQUE    LGT RAIN  68  58  70 E20       30.20R
EL PASO        PTCLDY    79  61  53 NE9G20    30.02R
$$


........................KEY........................
SKY/WX - SKY CONDITION/WEATHER
TMP    - TEMPERATURE IN FAHRENHEIT
DP     - DEW POINT IN FAHRENHEIT
RH     - RELATIVE HUMIDITY IN PERCENT
WIND   - DIRECTION AND SPEED IN MILES PER HOUR (MPH)
VRB    - VARIABLE WIND DIRECTION
PRES   - MEAN SEA LEVEL PRESSURE IN INCHES OF MERCURY
         F - FALLING PRESSURE   R - RISING PRESSURE
         S - STEADY PRESSURE
VSB    - VISIBILITY IN MILES
HX     - HEAT INDEX IN FAHRENHEIT
WCI    - WIND CHILL INDEX IN FAHRENHEIT
TC     - TEMPERATURE IN CELSIUS WHICH IS ALSO KNOWN AS
         TEMPERATURE IN CENTIGRADE
AFB    - AIR FORCE BASE
         LUKE AFB IS LUKE AIR FORCE BASE
         DAVIS-MONTHAN IS DAVIS-MONTHAN AIR FORCE BASE
NAS    - NAVAL AIR STATION
         EL CENTRO NAS IS EL CENTRO NAVAL AIR STATION
N/A    - NOT AVAILABLE




USA.gov is the U.S. government's official web portal to all federal, state and local government web resources and services.